Flag for U.S.A. Weather past 2 weeks in Bismarck, North Dakota, U.S.A.

Now
43 °F

Clear.


Feels Like: 37 °F
Forecast: 29 / 49 °F
Wind: 12 mph from Northwest

Location: Bismarck Municipal Airport

Current Time: Apr 20, 2015 at 10:42:24 PM

Latest Report: Apr 20, 2015 at 9:52 PM


Visibility: 10 mi

Pressure: 29.81 "Hg

Humidity: 24%

Dew point: 8 °F

Location of BismarckLocation

Historic Weather in Bismarck — Graph

°F

Bismarck temperature yesterday

Maximum temperature yesterday: 50 °F (at 3:52 PM)
Minimum temperature yesterday: 40 °F (at 7:52 AM)
Average temperature yesterday: 45 °F

Past Weeks' High & Low Weather Summary

 TemperatureHumidityPressure
High82 °F (Apr 14, 3:52 PM)100% (Apr 7, 1:59 PM)30.24 "Hg (Apr 7, 1:59 PM)
Low24 °F (Apr 10, 7:52 AM)13% (Apr 20, 2:52 PM)29.45 "Hg (Apr 12, 1:52 AM)
Average47 °F51%29.97 "Hg
* Reported Apr 5 8:52 PM — Apr 20 8:52 PM, Bismarck, Weather by CustomWeather, © 2015

Note: Actual official high and low records may vary slightly from our data, if they occured in-between our weather recording intervals... More about our weather records

Advertising

Bismarck weather history for previous 24 hours

 ConditionsComfort  
Time TempWeatherWind HumidityBarometerVisibility
8:52 PM
Mon, Apr 20
46 °FSunny.16 mph20%29.80 "Hg10 mi
7:52 PM49 °FSunny.23 mph16%29.79 "Hg10 mi
6:52 PM51 °FSunny.24 mph14%29.79 "Hg10 mi
5:52 PM52 °FSunny.31 mph14%29.78 "Hg10 mi
4:52 PM52 °FSunny.35 mph13%29.78 "Hg10 mi
3:52 PM52 °FSunny.33 mph13%29.78 "Hg10 mi
2:52 PM52 °FSunny.29 mph13%29.79 "Hg10 mi
1:52 PM51 °FSunny.26 mph14%29.79 "Hg10 mi
12:52 PM50 °FSunny.26 mph17%29.80 "Hg10 mi
11:52 AM46 °FSunny.28 mph24%29.83 "Hg10 mi
10:52 AM43 °FSunny.18 mph27%29.84 "Hg10 mi
9:52 AM39 °FSunny.26 mph36%29.85 "Hg10 mi
8:52 AM35 °FSunny.23 mph50%29.88 "Hg10 mi
7:52 AM32 °FSunny.16 mph56%29.88 "Hg10 mi
6:52 AM31 °FClear.14 mph64%29.88 "Hg10 mi
5:52 AM32 °FClear.14 mph64%29.88 "Hg10 mi
4:52 AM32 °FClear.9 mph66%29.88 "Hg10 mi
3:52 AM33 °FClear.10 mph70%29.89 "Hg10 mi
2:52 AM33 °FClear.8 mph72%29.90 "Hg10 mi
1:52 AM37 °FClear.9 mph65%29.91 "Hg10 mi
12:52 AM38 °FClear.10 mph65%29.92 "Hg10 mi
11:52 PM
Sun, Apr 19
40 °FClear.16 mph55%29.93 "Hg10 mi
10:52 PM43 °FOvercast.17 mph60%29.93 "Hg10 mi
Weather by CustomWeather, © 2015

See weather overviewHow to use our weather pages